• In Hungary
  • List of Countries
  • For 7 days
  • Water Temperature
  • Satellite Maps
  • Weather Map
  • News
  • Weather Widgets
  • user-avatar
    Login

    Hourly Weather Baygazino

    Today, 20 July, Friday

    Time Temperature Precipitation Wind Pressure Humidity
    00:00 +18°C° 0.1 mm 1 mps 721 mmHg 94%
    01:00 +18°C° 0.1 mm 1 mps 721 mmHg 95%
    02:00 +16°C° 0 mm 1 mps 721 mmHg 95%
    03:00 +16°C° 0 mm 1 mps 721 mmHg 95%
    04:00 +16°C° 0 mm 1 mps 721 mmHg 96%
    05:00 +18°C° 0 mm 1 mps 721 mmHg 94%
    06:00 +19°C° 0 mm 1 mps 721 mmHg 92%
    07:00 +21°C° 0 mm 1 mps 722 mmHg 90%
    08:00 +22°C° 0 mm 1 mps 722 mmHg 81%
    09:00 +24°C° 0 mm 2 mps 722 mmHg 73%
    10:00 +27°C° 0 mm 1 mps 722 mmHg 65%
    11:00 +27°C° 0.1 mm 1 mps 722 mmHg 63%
    12:00 +28°C° 0.1 mm 2 mps 722 mmHg 61%
    13:00 +28°C° 0.1 mm 2 mps 722 mmHg 60%
    14:00 +27°C° 0.6 mm 2 mps 722 mmHg 67%
    15:00 +26°C° 0.6 mm 2 mps 721 mmHg 75%
    16:00 +26°C° 0 mm 2 mps 721 mmHg 83%
    17:00 +25°C° 0.7 mm 2 mps 721 mmHg 86%
    18:00 +24°C° 0.7 mm 2 mps 721 mmHg 89%
    19:00 +23°C° 0.7 mm 2 mps 721 mmHg 92%
    20:00 +21°C° 0.3 mm 2 mps 721 mmHg 94%
    21:00 +20°C° 0.3 mm 3 mps 721 mmHg 95%
    22:00 +19°C° 0.3 mm 3 mps 721 mmHg 97%
    23:00 +19°C° 0 mm 3 mps 721 mmHg 97%

    Tomorrow, 21 July, Saturday

    Time Temperature Precipitation Wind Pressure Humidity
    00:00 +19°C° 0 mm 4 mps 721 mmHg 97%
    01:00 +18°C° 0 mm 4 mps 721 mmHg 97%
    02:00 +18°C° 0 mm 4 mps 721 mmHg 97%
    03:00 +18°C° 0 mm 4 mps 721 mmHg 96%
    04:00 +18°C° 0 mm 4 mps 721 mmHg 96%
    05:00 +18°C° 0 mm 4 mps 721 mmHg 94%
    06:00 +17°C° 0 mm 5 mps 721 mmHg 92%
    07:00 +17°C° 0 mm 5 mps 721 mmHg 90%
    08:00 +17°C° 0 mm 5 mps 721 mmHg 87%
    09:00 +19°C° 0 mm 5 mps 722 mmHg 85%
    10:00 +19°C° 0 mm 5 mps 722 mmHg 82%
    11:00 +19°C° 0 mm 5 mps 722 mmHg 82%
    12:00 +19°C° 0 mm 5 mps 722 mmHg 81%
    13:00 +19°C° 0 mm 5 mps 722 mmHg 81%
    14:00 +19°C° 0 mm 6 mps 722 mmHg 81%
    15:00 +19°C° 0 mm 6 mps 722 mmHg 81%
    16:00 +19°C° 0 mm 6 mps 722 mmHg 81%
    17:00 +17°C° 0 mm 6 mps 722 mmHg 82%
    18:00 +17°C° 0 mm 6 mps 722 mmHg 83%
    19:00 +17°C° 0 mm 6 mps 722 mmHg 84%
    20:00 +17°C° 0 mm 6 mps 722 mmHg 83%
    21:00 +17°C° 0 mm 6 mps 722 mmHg 82%
    22:00 +16°C° 0 mm 7 mps 722 mmHg 82%
    23:00 +16°C° 0 mm 7 mps 722 mmHg 82%

    Day after tomorrow, 22 July, Sunday

    Time Temperature Precipitation Wind Pressure Humidity
    00:00 +15°C° 0 mm 7 mps 722 mmHg 81%
    01:00 +15°C° 0 mm 7 mps 722 mmHg 81%
    02:00 +14°C° 0 mm 7 mps 722 mmHg 82%
    03:00 +14°C° 0 mm 6 mps 722 mmHg 83%
    04:00 +13°C° 0 mm 6 mps 722 mmHg 84%
    05:00 +14°C° 0 mm 6 mps 722 mmHg 82%
    06:00 +14°C° 0 mm 7 mps 722 mmHg 80%
    07:00 +14°C° 0 mm 7 mps 723 mmHg 78%
    08:00 +15°C° 0 mm 7 mps 723 mmHg 73%
    09:00 +17°C° 0 mm 7 mps 723 mmHg 68%
    10:00 +18°C° 0 mm 8 mps 723 mmHg 63%
    11:00 +18°C° 0 mm 7 mps 723 mmHg 61%
    12:00 +20°C° 0 mm 7 mps 724 mmHg 58%
    13:00 +21°C° 0 mm 7 mps 724 mmHg 55%
    14:00 +21°C° 0 mm 7 mps 724 mmHg 55%
    15:00 +21°C° 0 mm 7 mps 724 mmHg 55%
    16:00 +21°C° 0 mm 7 mps 724 mmHg 54%
    17:00 +19°C° 0 mm 6 mps 724 mmHg 58%
    18:00 +17°C° 0 mm 6 mps 724 mmHg 62%
    19:00 +16°C° 0 mm 5 mps 724 mmHg 66%
    20:00 +15°C° 0 mm 5 mps 725 mmHg 67%
    21:00 +14°C° 0 mm 5 mps 725 mmHg 69%
    22:00 +13°C° 0 mm 5 mps 725 mmHg 70%
    23:00 +12°C° 0 mm 5 mps 725 mmHg 72%

    23 July, Monday

    Time Temperature Precipitation Wind Pressure Humidity
    00:00 +12°C° 0 mm 5 mps 726 mmHg 74%
    01:00 +11°C° 0 mm 4 mps 726 mmHg 76%
    02:00 +11°C° 0 mm 4 mps 726 mmHg 78%
    03:00 +10°C° 0 mm 4 mps 726 mmHg 81%
    04:00 +10°C° 0 mm 4 mps 727 mmHg 83%
    05:00 +11°C° 0 mm 4 mps 727 mmHg 79%
    06:00 +12°C° 0 mm 5 mps 727 mmHg 74%
    07:00 +13°C° 0 mm 5 mps 727 mmHg 70%
    08:00 +14°C° 0 mm 5 mps 727 mmHg 65%
    09:00 +15°C° 0 mm 6 mps 727 mmHg 60%
    10:00 +17°C° 0 mm 6 mps 727 mmHg 56%
    11:00 +19°C° 0 mm 6 mps 728 mmHg 53%
    12:00 +20°C° 0 mm 5 mps 728 mmHg 51%
    13:00 +21°C° 0 mm 5 mps 728 mmHg 49%
    14:00 +21°C° 0 mm 5 mps 728 mmHg 49%
    15:00 +21°C° 0 mm 5 mps 728 mmHg 49%
    16:00 +21°C° 0 mm 4 mps 728 mmHg 50%
    17:00 +20°C° 0 mm 4 mps 728 mmHg 56%
    18:00 +19°C° 0 mm 3 mps 728 mmHg 62%
    19:00 +18°C° 0 mm 3 mps 728 mmHg 68%
    20:00 +16°C° 0 mm 2 mps 728 mmHg 74%
    21:00 +14°C° 0 mm 2 mps 728 mmHg 80%
    22:00 +12°C° 0 mm 2 mps 728 mmHg 86%
    23:00 +12°C° 0 mm 2 mps 728 mmHg 88%

    24 July, Tuesday

    Time Temperature Precipitation Wind Pressure Humidity
    00:00 +12°C° 0 mm 2 mps 728 mmHg 90%
    01:00 +11°C° 0 mm 1 mps 729 mmHg 91%
    02:00 +11°C° 0 mm 1 mps 729 mmHg 93%
    03:00 +11°C° 0 mm 1 mps 729 mmHg 94%
    04:00 +11°C° 0 mm 1 mps 729 mmHg 95%
    05:00 +12°C° 0 mm 2 mps 729 mmHg 89%
    06:00 +14°C° 0 mm 2 mps 729 mmHg 83%
    07:00 +16°C° 0 mm 2 mps 730 mmHg 77%
    08:00 +18°C° 0 mm 2 mps 730 mmHg 70%
    09:00 +20°C° 0 mm 3 mps 730 mmHg 63%
    10:00 +22°C° 0 mm 3 mps 730 mmHg 56%
    11:00 +24°C° 0 mm 3 mps 730 mmHg 54%
    12:00 +25°C° 0 mm 3 mps 730 mmHg 52%
    13:00 +26°C° 0 mm 3 mps 730 mmHg 50%
    14:00 +26°C° 0 mm 3 mps 730 mmHg 50%
    15:00 +26°C° 0 mm 3 mps 730 mmHg 51%
    16:00 +27°C° 0 mm 3 mps 730 mmHg 51%
    17:00 +25°C° 0 mm 2 mps 729 mmHg 58%
    18:00 +24°C° 0 mm 2 mps 729 mmHg 66%
    19:00 +23°C° 0 mm 2 mps 729 mmHg 73%
    20:00 +21°C° 0 mm 1 mps 729 mmHg 78%
    21:00 +19°C° 0 mm 1 mps 729 mmHg 83%
    22:00 +16°C° 0 mm 1 mps 729 mmHg 87%
    23:00 +16°C° 0 mm 1 mps 729 mmHg 88%

    25 July, Wednesday

    Time Temperature Precipitation Wind Pressure Humidity
    00:00 +16°C° 0 mm 1 mps 729 mmHg 88%
    01:00 +15°C° 0 mm 1 mps 729 mmHg 89%
    02:00 +15°C° 0 mm 1 mps 729 mmHg 89%
    03:00 +15°C° 0 mm 1 mps 730 mmHg 90%
    04:00 +14°C° 0 mm 1 mps 730 mmHg 90%
    05:00 +16°C° 0 mm 1 mps 730 mmHg 84%
    06:00 +19°C° 0 mm 1 mps 730 mmHg 79%
    07:00 +21°C° 0 mm 1 mps 731 mmHg 73%
    08:00 +23°C° 0 mm 1 mps 731 mmHg 64%
    09:00 +25°C° 0 mm 1 mps 731 mmHg 55%
    10:00 +27°C° 0 mm 2 mps 731 mmHg 47%
    11:00 +27°C° 0 mm 2 mps 731 mmHg 47%
    12:00 +27°C° 0 mm 2 mps 731 mmHg 47%
    13:00 +27°C° 0 mm 2 mps 731 mmHg 47%
    14:00 +27°C° 0 mm 2 mps 730 mmHg 50%
    15:00 +27°C° 0 mm 2 mps 730 mmHg 53%
    16:00 +27°C° 0 mm 2 mps 730 mmHg 55%
    17:00 +26°C° 0 mm 2 mps 730 mmHg 61%
    18:00 +25°C° 0 mm 1 mps 730 mmHg 66%
    19:00 +23°C° 0 mm 1 mps 730 mmHg 72%
    20:00 +22°C° 0 mm 1 mps 730 mmHg 76%
    21:00 +20°C° 0 mm 1 mps 730 mmHg 79%
    22:00 +19°C° 0 mm 1 mps 730 mmHg 83%
    23:00 +18°C° 0 mm 1 mps 730 mmHg 86%
    Show more